Location: Unspecified
(0.0000°N, 0.0000°E)
Time: 06:49:33
(UTC+00:00)

HTV-X1 - Visible Passes

Search period start: 11 June 2026 00:00
Search period end: 21 June 2026 00:00
Orbit: 368 x 378 km, 51.6° (Epoch: 26 May)

Date Brightness Start Highest point End Pass type
(mag) Time Alt. Az. Time Alt. Az. Time Alt. Az.
11 Jun ? 04:39:01 64° S 04:39:22 75° SE 04:42:24 10° NE visible
12 Jun ? 05:10:57 11° WNW 05:11:48 12° NW 05:13:07 10° NNW visible
13 Jun ? 04:10:46 17° NNE 04:10:46 17° NNE 04:11:38 10° NNE visible
